Weather History for Bradford, PA

Change the Weather History Date:

Thursday, April 25, 2013

  Actual Average Record
Temperature  
Mean Temperature 44 °F 47 °F  
Max Temperature 55 °F 59 °F 82 °F (2009)
Min Temperature 34 °F 35 °F 17 °F (1967)
Degree Days  
Heating Degree Days 22 13  
Month to date heating degree days 428  
Since 1 July heating degree days 7035  
Cooling Degree Days 0 0  
Month to date cooling degree days 0  
Year to date cooling degree days 0  
Moisture  
Dew Point 29 °F    
Average Humidity 68    
Maximum Humidity 86    
Minimum Humidity 30    
Precipitation  
Precipitation 0.11 in 0.12 in 1.10 in (1993)
Month to date precipitation 2.95  
Year to date precipitation 11.96  
Sea Level Pressure  
Sea Level Pressure 30.20 in    
Wind  
Wind Speed 9 mph (WSW)    
Max Wind Speed 17 mph    
Max Gust Speed 23 mph    
Visibility 10 miles    
Events Rain , Snow    
T = Trace of Precipitation, MM = Missing Value Source: NWS Daily Summary

Daily Weather History Graph

Daily Weather History Graph

Search for Another Location

Airport:

Trip Planner

Search our weather history database for the weather conditions in past years. The results will help you decide how hot, cold, wet, or windy it might be!

Date:

Astronomy

Apr. 25, 2013 Rise Set
Actual Time 6:18 AM EDT 8:06 PM EDT
Civil Twilight 5:49 AM EDT 8:36 PM EDT
Nautical Twilight 5:13 AM EDT 9:12 PM EDT
Astronomical Twilight 4:34 AM EDT 9:51 PM EDT
Moon 8:18 PM EDT (4/25) 6:00 AM EDT (4/25)
Length of Visible Light 14h 47m
Length of Day
13h 47m
Full, 100% of the Moon is Illuminated
Apr 25
Full
Apr 25
Full
May 2
Last Quarter
May 9
New
May 18
First Quarter

Hourly Weather History & Observations

Time (EDT) Temp. Windchill Dew Point Humidity Pressure Visibility Wind Dir Wind Speed Gust Speed Precip Events Conditions
12:39 AM 35.1 °F 24.8 °F 28.9 °F 78% 30.06 in 10.0 mi WNW 17.3 mph 23.0 mph 0.00 in   Overcast
12:53 AM 35.1 °F 25.9 °F 28.9 °F 78% 30.07 in 7.0 mi WNW 13.8 mph 20.7 mph 0.00 in Snow Light Snow
1:48 AM 35.6 °F 28.6 °F 28.4 °F 75% 30.06 in 10.0 mi WNW 9.2 mph - 0.00 in   Overcast
1:53 AM 35.1 °F 26.9 °F 28.9 °F 78% 30.08 in 10.0 mi WNW 11.5 mph 18.4 mph 0.00 in   Overcast
2:53 AM 35.1 °F 27.4 °F 28.0 °F 76% 30.08 in 10.0 mi West 10.4 mph - N/A   Overcast
3:53 AM 35.1 °F 30.1 °F 28.0 °F 76% 30.12 in 10.0 mi West 5.8 mph - N/A   Overcast
4:42 AM 34.0 °F 28.8 °F 28.0 °F 79% 30.13 in 10.0 mi SW 5.8 mph - N/A   Overcast
4:53 AM 34.0 °F 29.8 °F 28.0 °F 79% 30.15 in 10.0 mi SW 4.6 mph - N/A   Overcast
5:26 AM 34.0 °F 31.0 °F 28.9 °F 82% 30.13 in 10.0 mi Variable 3.5 mph - N/A   Overcast
5:44 AM 34.0 °F 28.8 °F 28.9 °F 82% 30.14 in 10.0 mi SW 5.8 mph - N/A   Overcast
5:53 AM 34.0 °F 29.8 °F 28.9 °F 82% 30.16 in 10.0 mi WSW 4.6 mph - N/A   Overcast
6:37 AM 34.0 °F 29.8 °F 28.9 °F 82% 30.16 in 10.0 mi Variable 4.6 mph - N/A   Overcast
6:53 AM 34.0 °F 28.0 °F 28.9 °F 82% 30.21 in 10.0 mi Variable 6.9 mph - N/A   Overcast
7:09 AM 34.0 °F 26.6 °F 28.9 °F 82% 30.17 in 10.0 mi West 9.2 mph - N/A   Overcast
7:53 AM 35.1 °F 27.9 °F 28.0 °F 76% 30.22 in 10.0 mi West 9.2 mph - N/A   Overcast
8:53 AM 36.0 °F 31.1 °F 28.0 °F 73% 30.25 in 10.0 mi West 5.8 mph - N/A   Overcast
9:50 AM 37.4 °F 33.8 °F 26.6 °F 65% 30.20 in 10.0 mi SW 4.6 mph - N/A   Partly Cloudy
9:53 AM 39.0 °F - 27.0 °F 62% 30.25 in 10.0 mi Calm Calm - N/A   Partly Cloudy
10:05 AM 39.9 °F 34.5 °F 27.0 °F 60% 30.20 in 10.0 mi SSW 8.1 mph - N/A   Mostly Cloudy
10:43 AM 41.0 °F 39.0 °F 26.1 °F 55% 30.20 in 10.0 mi Variable 3.5 mph - N/A   Mostly Cloudy
10:53 AM 42.1 °F - 25.0 °F 51% 30.25 in 10.0 mi North - - N/A   Mostly Cloudy
11:53 AM 45.0 °F - 24.1 °F 44% 30.23 in 10.0 mi North - - N/A   Partly Cloudy
12:53 PM 48.0 °F - 24.1 °F 39% 30.20 in 10.0 mi Variable 6.9 mph - N/A   Clear
1:53 PM 51.1 °F - 25.0 °F 36% 30.20 in 10.0 mi SW 11.5 mph 19.6 mph N/A   Clear
2:53 PM 51.1 °F - 23.0 °F 33% 30.18 in 10.0 mi SW 9.2 mph 18.4 mph N/A   Clear
3:53 PM 52.0 °F - 23.0 °F 32% 30.17 in 10.0 mi WSW 12.7 mph 20.7 mph N/A   Partly Cloudy
4:53 PM 53.1 °F - 21.9 °F 30% 30.16 in 10.0 mi SSW 8.1 mph 19.6 mph N/A   Scattered Clouds
5:53 PM 52.0 °F - 21.9 °F 31% 30.18 in 10.0 mi SW 9.2 mph 17.3 mph N/A   Overcast
6:53 PM 50.0 °F - 25.0 °F 38% 30.21 in 10.0 mi West 6.9 mph - 0.00 in   Overcast
7:53 PM 44.1 °F - 33.1 °F 65% 30.23 in 10.0 mi Calm Calm - 0.01 in   Mostly Cloudy
8:30 PM 42.1 °F 37.1 °F 34.0 °F 73% 30.23 in 6.0 mi WSW 8.1 mph 17.3 mph 0.02 in Rain Light Rain
8:53 PM 41.0 °F 38.0 °F 35.1 °F 79% 30.29 in 9.0 mi West 4.6 mph - 0.04 in Rain Light Rain
9:11 PM 41.0 °F 34.7 °F 36.0 °F 82% 30.26 in 4.0 mi West 10.4 mph - 0.03 in Rain Rain
9:19 PM 41.0 °F 34.3 °F 35.1 °F 79% 30.27 in 4.0 mi WNW 11.5 mph 18.4 mph 0.04 in Rain Light Rain
9:53 PM 39.9 °F 36.7 °F 35.1 °F 83% 30.31 in 10.0 mi WSW 4.6 mph - 0.06 in Rain Light Rain
10:02 PM 39.9 °F 37.8 °F 35.1 °F 83% 30.27 in 10.0 mi West 3.5 mph - 0.00 in   Mostly Cloudy
10:05 PM 39.9 °F 37.8 °F 35.1 °F 83% 30.27 in 10.0 mi West 3.5 mph - 0.00 in   Mostly Cloudy
10:19 PM 39.0 °F 36.8 °F 34.0 °F 82% 30.27 in 10.0 mi SSW 3.5 mph - 0.00 in   Overcast
10:53 PM 39.0 °F 36.8 °F 34.0 °F 82% 30.32 in 10.0 mi WSW 3.5 mph - 0.00 in   Overcast
11:07 PM 39.0 °F 36.8 °F 35.1 °F 86% 30.28 in 10.0 mi Variable 3.5 mph - N/A   Overcast
11:39 PM 39.0 °F 32.3 °F 34.0 °F 82% 30.29 in 10.0 mi West 10.4 mph - N/A   Overcast
11:53 PM 39.0 °F 34.0 °F 33.1 °F 79% 30.33 in 10.0 mi West 6.9 mph - N/A   Overcast